Regional Weather Roundup
Issued by NWS

Home | Current Version | Previous Version | Graphics & Text | Print | Product List | Glossary On
Versions: 1 2 3 4 5 6 7 8 9 10 11 12 13 14 15 16 17 18 19 20 21 22 23 24 25 26 27 28 29 30 31 32 33 34 35 36 37 38 39 40 41 42 43 44 45 46 47 48 49 50
000
ASUS43 KBIS 230810
RWRND

NORTH DAKOTA REGIONAL WEATHER ROUNDUP
NATIONAL WEATHER SERVICE BISMARCK ND
300 AM CDT TUE MAY 23 2017

NOTE: "FAIR" INDICATES FEW OR NO CLOUDS BELOW 12,000 FEET WITH NO
SIGNIFICANT WEATHER AND/OR OBSTRUCTIONS TO VISIBILITY.


NDZ001>003-009>011-017-230900-
NORTHWEST NORTH DAKOTA

CITY           SKY/WX    TMP DP  RH WIND       PRES   REMARKS
WILLISTON      FAIR      40  35  83 NW5       30.16S
MINOT          FAIR      47  37  68 W12       30.10S
MINOT AFB      PTCLDY    40  36  86 NW10      30.10R
$$

NDZ018>021-031>035-040>046-230900-
SOUTHWEST NORTH DAKOTA

CITY           SKY/WX    TMP DP  RH WIND       PRES   REMARKS
BISMARCK       CLOUDY    51  39  63 NW8       30.05F
DICKINSON      FAIR      43  34  70 N6        30.12S
GARRISON         N/A     41  35  79 NW12      30.09S
HETTINGER ARPT CLOUDY    45  34  65 N8        30.13R
$$

NDZ004>008-012>016-024-026-027-054-230900-
NORTHEAST NORTH DAKOTA

CITY           SKY/WX    TMP DP  RH WIND       PRES   REMARKS
GRAND FORKS    CLOUDY    49  46  90 N14       29.94S
GRND FRKS AFB  CLOUDY    46  45  93 N14       29.95S
DEVILS LAKE    CLOUDY    46  41  82 N15       30.01F
$$

NDZ022-023-025-028>030-036>039-047>053-230900-
SOUTHEAST NORTH DAKOTA

CITY           SKY/WX    TMP DP  RH WIND       PRES   REMARKS
FARGO          LGT RAIN  48  47  96 N15       29.90S
JAMESTOWN      CLOUDY    46  43  89 N17       29.96S
$$





USA.gov is the U.S. government's official web portal to all federal, state and local government web resources and services.